Location: Unspecified
(58.3334°N, 0.0000°E)
Time: 04:21:12
(UTC+00:00)

Vanguard 2 - All Passes

Search period start: 05 April 2026 00:00
Search period end: 15 April 2026 00:00
Orbit: 554 x 2896 km, 32.9° (Epoch: 29 March)

Date Brightness Start Highest point End Pass type
(mag) Time Alt. Az. Time Alt. Az. Time Alt. Az.
5 Apr - 16:07:02 10° SSE 16:07:23 10° SSE 16:07:43 10° SSE daylight
5 Apr - 18:09:34 10° SSW 18:13:59 14° S 18:19:17 10° SSE daylight
5 Apr - 20:20:41 10° SSW 20:21:14 10° SSW 20:21:47 10° SSW visible
6 Apr - 16:17:35 10° S 16:18:36 10° SSE 16:19:39 10° SSE daylight
6 Apr - 18:21:44 10° SSW 18:25:18 12° S 18:29:23 10° SSE daylight
7 Apr - 16:29:30 10° S 16:29:51 10° SSE 16:30:12 10° SSE daylight
7 Apr - 18:34:55 10° SSW 18:36:36 10° S 18:38:23 10° S daylight
